Location: Wildlife_Club
(35.6000°N, 81.4330°W)
Time: 19:03:41
(UTC-04:00)

A-11 Canister half - Pass Details

Date: 29 June 2019
Orbit: 1515 x 1685 km, 47.2° (Epoch: 15 July)

Event Time Altitude Azimuth Distance (km) Brightness Sun altitude
Rises 19:06:16 0° 286° (WNW) 4,740 13.3 17.7°
Reaches altitude 10° 19:12:06 10° 259° (WSW) 3,715 12.3 16.6°
Maximum altitude 19:15:10 12° 239° (WSW) 3,538 11.6 16.0°
Drops below altitude 10° 19:18:15 10° 219° (SW) 3,681 11.3 15.4°
Sets 19:24:01 0° 191° (S) 4,642 11.4 14.3°
